Regional Weather Roundup
Issued by NWS Little Rock, AR

Home | Current Version | Previous Version | Graphics & Text | Print | Product List | Glossary On
Versions: 1 2 3 4 5 6 7 8 9 10 11 12 13 14 15 16 17 18 19 20 21 22 23 24 25 26 27 28 29 30 31 32 33 34 35 36 37 38 39 40 41 42 43 44 45 46 47 48 49 50
000
ASUS44 KLZK 011905
RWRLZK

WEATHER ROUNDUP FOR ARKANSAS
NATIONAL WEATHER SERVICE LITTLE ROCK AR
200 PM CDT MON SEP 01 2014

NOTE: "FAIR" INDICATES FEW OR NO CLOUDS BELOW 12,000 FEET WITH NO
SIGNIFICANT WEATHER AND/OR OBSTRUCTIONS TO VISIBILITY.

ARZ001-003-010-029-012000-
NORTHWEST ARKANSAS

CITY           SKY/WX    TMP DP  RH WIND       PRES   REMARKS
FAYETTEVILLE   MOSUNNY   84  70  62 S21       29.94F HX  88
FORT SMITH     MOSUNNY   92  70  48 S9        29.91F HX  97
HARRISON       MOSUNNY   82  68  62 S15G22    29.98F HX  85
BENTONVILLE    SUNNY     84  72  65 S12G17    29.94F HX  89
ROGERS         SUNNY     82  69  64 SE13      29.95F HX  85
HIGHFILL       SUNNY     86  70  58 S16G24    29.93F HX  90
SPRINGDALE     PTSUNNY   82  70  65 S13G23    29.96F HX  86
$$

ARZ004-005-016-012000-
NORTH CENTRAL ARKANSAS

CITY           SKY/WX    TMP DP  RH WIND       PRES   REMARKS
BATESVILLE     CLOUDY    90  70  51 S7        29.97F HX  95
FLIPPIN        MOSUNNY   82  63  51 SE3       29.98F
MTN HOME       MOSUNNY   82  66  58 VRB6      29.97F
$$

ARZ040-041-012000-
WEST CENTRAL ARKANSAS

CITY           SKY/WX    TMP DP  RH WIND       PRES   REMARKS
MENA           MOSUNNY   88  72  58 S3        29.99F HX  94
MOUNT IDA      MOSUNNY   86  71  60 VRB6      29.97F HX  91
$$

ARZ009-017-025-026-028-012000-
NORTHEAST ARKANSAS

CITY           SKY/WX    TMP DP  RH WIND       PRES   REMARKS
CORNING        LGT RAIN  86  73  66 S10       29.95F HX  93
JONESBORO      MOSUNNY   89  72  56 SW18      29.98F HX  96
NEWPORT        MOSUNNY   91  73  55 S15       29.99F HX  99
WALNUT RIDGE   MOSUNNY   90  57  33 S17       29.95F HX  88
BLYTHEVILLE    MOSUNNY   89  75  63 SW13G21   30.00F HX  99
$$

ARZ022-023-033-042-044-012000-
CENTRAL ARKANSAS

CITY           SKY/WX    TMP DP  RH WIND       PRES   REMARKS
LITTLE ROCK    PTSUNNY   89  70  53 S12G18    30.00F HX  94
N LITTLE ROCK  PTSUNNY   89  72  56 S12G18    30.00F HX  96
JACKSONVILLE   MOSUNNY   91  71  53 S10G16    30.00F HX  97
SEARCY         MOSUNNY   91  73  55 MISG      29.99F HX  99
HOT SPRINGS    PTSUNNY   88  70  55 S12       30.00F HX  93
RUSSELLVILLE   MOSUNNY   89  72  56 VRB6      29.96F HX  96
CLINTON        FAIR      88  73  62 S7        29.98F HAZE    HX  96
$$

ARZ036-012000-
EAST ARKANSAS

CITY           SKY/WX    TMP DP  RH WIND       PRES   REMARKS
WEST MEMPHIS   MOSUNNY   88  76  67 S9G18     30.01F HX  99
$$

ARZ050-053-066-070-073-012000-
SOUTHWEST ARKANSAS

CITY           SKY/WX    TMP DP  RH WIND       PRES   REMARKS
ARKADELPHIA    FAIR      90  75  61 S6        29.99F HX 100
CAMDEN         MOSUNNY   91  72  52 SW3       29.99F HX  98
TEXARKANA      MOSUNNY   92  69  47 S10       29.97F HX  97
EL DORADO      CLOUDY    86  75  69 SE12G20   30.01F HX  95
DE QUEEN       MOSUNNY   89  73  59 S9        29.95F HX  97
$$

ARZ056-057-069-012000-
SOUTHEAST ARKANSAS

CITY           SKY/WX    TMP DP  RH WIND       PRES   REMARKS
PINE BLUFF     SUNNY     88  73  61 S6        30.01F HX  95
STUTTGART      MOSUNNY   90  73  58 S10       30.03S HX  98
MONTICELLO     SUNNY     87  73  62 SW6       30.02F HX  94

$$





USA.gov is the U.S. government's official web portal to all federal, state and local government web resources and services.